Terminal Aerodrome Forecast
Issued by NWS King Salmon, AK

Home | Current Version | Previous Version | Text Only | Print | Product List | Glossary On
Versions: 1 2 3 4 5 6 7 8 9 10 11 12 13 14 15
000
FTAK31 PANC 202338
TAFAKN
TAF
PAKN 202338Z 2100/2124 24008KT P6SM BKN009
     FM210300 32010KT P6SM SCT009 BKN035
     FM210900 34008KT P6SM SCT030=

USA.gov is the U.S. government's official web portal to all federal, state and local government web resources and services.